[[{"header":{"parameterUnit":"m.s-1","parameterCategory":1,"la1":30.2991,"la2":30.254,"lo1":-89.0895,"lo2":-89.0444,"dy":0.0017,"dx":0.0017,"nx":28,"ny":28,"refTime":"2025-03-23T03:00:00:Z","depth":0,"parameterNumber":2,"parameterNumberName":"U-component_of_WINDS"},"data":[0,0,0,0,0,0,0,0,0,0,0,0,0,0,0,0,0,0,0,0,0,0,0,0,0,0,0,0,0,0,0,0,0,0,0,0,0,0,0,0,0,0,0,0,0,0,0,0,0,0,0,0,0,0,0,0,0,0,0.3537,0.3537,0,0.353,0.353,0.353,0.3505,0.3504,0.3504,0.3503,0.3497,0.3497,0.3497,0,0,0,0,0,0,0,0,0,0,0,0,0,0.3529,0.3529,0.3537,0.3537,0.3537,0.353,0.353,0.353,0.3505,0.3504,0.3503,0.3503,0.3497,0.3497,0.3497,0,0,0,0,0,0,0,0,0,0,0,0,0,0.3528,0.3529,0.3537,0.3524,0.3522,0.353,0.353,0.353,0.3505,0.3504,0.3503,0.3502,0.3496,0.3497,0.3497,0.3518,0,0,0.3499,0.3499,0,0,0,0,0,0,0,0,0.3529,0.3529,0.3526,0.3525,0.3523,0.3517,0.3525,0.3526,0.3505,0.3512,0.3503,0.3502,0.3504,0.3504,0.3505,0.3518,0.3518,0.3499,0.35,0.35,0.35,0,0,0,0,0,0,0,0.3529,0.3529,0.3535,0.3526,0.3524,0.3518,0.3517,0.3525,0.3513,0.3511,0.3509,0.3509,0.3503,0.3504,0.3504,0.3518,0.3499,0.35,0.35,0.35,0.3548,0.3548,0,0,0,0,0,0,0.3531,0.3529,0.3535,0.3534,0.3524,0.3519,0.3518,0.352,0.3513,0.3511,0.3509,0.3507,0.3504,0.3504,0.3504,0.3528,0.35,0.35,0.3501,0.3547,0.3548,0.3549,0,0,0,0,0,0,0.353,0.3531,0.3535,0.3531,0.3531,0.352,0.3523,0.3521,0.3521,0.3512,0.3509,0.3512,0.3503,0.3503,0.3515,0.3528,0.3501,0.3501,0.3546,0.3547,0.3548,0.3576,0,0,0,0,0,0,0.353,0.3531,0.3539,0.3532,0.3532,0.3546,0.3524,0.3521,0.3522,0.352,0.3514,0.3512,0.3502,0.3514,0.3515,0.3528,0.3502,0.3544,0.3546,0.3548,0.3574,0.3578,0.3582,0,0,0,0,0,0.353,0.3548,0.354,0.3541,0.3541,0.3547,0.3547,0.3535,0.3523,0.3531,0.3525,0.3512,0.3526,0.3516,0.3517,0.353,0.3544,0.3546,0.3548,0.3572,0.3578,0.3582,0,0,0,0,0,0,0.3557,0.3546,0.3538,0.3553,0.3551,0.3542,0.3552,0.3541,0.3542,0.354,0.3526,0.3525,0.3538,0.3535,0.3524,0.3549,0.3533,0.3535,0.3551,0.3556,0.356,0.356,0.3502,0,0,0,0,0,0.3565,0.357,0.3561,0.3575,0.3575,0.3563,0.3566,0.3557,0.3554,0.3553,0.3548,0.3546,0.355,0.3552,0.3555,0.3573,0.3572,0.3583,0.3587,0.359,0.3592,0.3602,0.3606,0.3556,0.3556,0.3556,0,0,0.3581,0.3576,0.358,0.3581,0.3578,0.3584,0.3563,0.357,0.3575,0.3554,0.3565,0.3561,0.3558,0.3573,0.3579,0.357,0.3606,0.3593,0.3595,0.3596,0.3604,0.3609,0.3613,0.3557,0.3557,0.3557,0,0,0.3614,0.361,0.3622,0.362,0.3616,0.3608,0.3611,0.3604,0.36,0.3611,0.3595,0.36,0.3607,0.3606,0.3606,0.3637,0.3626,0.3639,0.366,0.3669,0.3673,0.3676,0.3688,0.3692,0.3641,0.3641,0.3641,0,0.3635,0.3643,0.3629,0.3638,0.3638,0.362,0.3631,0.363,0.3627,0.3628,0.3619,0.3627,0.3623,0.3638,0.3645,0.3646,0.3649,0.364,0.3673,0.3677,0.368,0.369,0.3695,0.3643,0.3643,0.3642,0.3642,0,0.3668,0.3674,0.3684,0.3682,0.3684,0.3694,0.3682,0.3685,0.3676,0.367,0.368,0.3675,0.3677,0.368,0.3671,0.3693,0.3687,0.3676,0.3659,0.3686,0.3696,0.37,0.3645,0.3644,0.3644,0.3644,0,0,0.3718,0.3708,0.3712,0.3711,0.3705,0.3709,0.3718,0.3719,0.3723,0.3721,0.3729,0.3735,0.3724,0.3724,0.3715,0.3723,0.3748,0.371,0.371,0.3718,0.3772,0.3781,0.3786,0.374,0.3741,0.3742,0.3772,0,0.3749,0.3764,0.3752,0.3769,0.3775,0.3757,0.3765,0.3762,0.3756,0.376,0.3753,0.3758,0.3743,0.3743,0.375,0.3744,0.3759,0.3741,0.3747,0.3748,0.3749,0.3791,0.3801,0.383,0.3776,0.3777,0.3777,0,0.3788,0.3788,0.3805,0.3798,0.38,0.3807,0.3807,0.3811,0.3808,0.3803,0.3803,0.3791,0.38,0.3783,0.3795,0.3783,0.3785,0.3782,0.3783,0.3783,0.3764,0.3793,0.3839,0.3843,0.3783,0.3783,0.3782,0,0.3822,0.3827,0.3838,0.3837,0.3829,0.3835,0.3831,0.3827,0.3829,0.3829,0.383,0.3831,0.3832,0.3833,0.3822,0.3811,0.3835,0.3818,0.3832,0.3832,0.3838,0.3838,0.3885,0.3839,0.3839,0.3839,0.3839,0,0.3858,0.387,0.3853,0.386,0.3872,0.3859,0.3871,0.3866,0.3863,0.3868,0.3853,0.3859,0.3844,0.3848,0.384,0.3851,0.3851,0.3848,0.3846,0.3849,0.385,0.3851,0.3848,0.384,0.384,0.3839,0.3839,0,0.3899,0.3889,0.39,0.3891,0.3889,0.3898,0.3891,0.3897,0.389,0.3897,0.3898,0.3887,0.3891,0.3881,0.3883,0.3878,0.3893,0.3888,0.3895,0.3893,0.3908,0.3907,0.3957,0.3963,0.3913,0.3914,0.3914,0,0.3923,0.3931,0.3923,0.3926,0.3923,0.3928,0.3929,0.3916,0.3918,0.3914,0.3921,0.3924,0.3925,0.3933,0.3925,0.3927,0.3922,0.3939,0.3922,0.3925,0.3922,0.3922,0.3922,0.3943,0.3943,0.3944,0.3944,0,0.3966,0.3961,0.3963,0.3963,0.3965,0.3965,0.3964,0.3967,0.3953,0.3956,0.3959,0.3961,0.3963,0.3966,0.3966,0.3963,0.3952,0.395,0.3953,0.3957,0.3961,0.3959,0.3905,0.3949,0.3948,0.3948,0.3948,0.3948,0.3999,0.4006,0.4001,0.4004,0.4002,0.4001,0.4006,0.3999,0.4002,0.4003,0.3995,0.4001,0.3997,0.3996,0.3994,0.3999,0.3991,0.3996,0.3997,0.3998,0.4001,0.396,0.3999,0.3998,0.3998,0.3998,0.3998,0,0.4042,0.4038,0.4041,0.4039,0.4042,0.403,0.4028,0.4031,0.4036,0.4033,0.4035,0.404,0.4042,0.4035,0.4037,0.4042,0.4036,0.4043,0.4042,0.4042,0.4008,0.4005,0.4047,0.4047,0.4047,0.4047,0.4047,0.4047,0.4064,0.4075,0.4068,0.4077,0.4073,0.4078,0.4078,0.4077,0.4075,0.4081,0.4083,0.4078,0.4073,0.4075,0.4077,0.4075,0.4076,0.4084,0.408,0.4049,0.4044,0.404,0.4037,0.4085,0.4085,0.4114,0.4114,0.4114]},{"header":{"parameterUnit":"m.s-1","parameterCategory":1,"la1":30.2991,"la2":30.254,"lo1":-89.0895,"lo2":-89.0444,"dy":0.0017,"dx":0.0017,"nx":28,"ny":28,"refTime":"2025-03-23T03:00:00:Z","depth":0,"parameterNumber":3,"parameterNumberName":"V-component_of_WINDS"},"data":[0,0,0,0,0,0,0,0,0,0,0,0,0,0,0,0,0,0,0,0,0,0,0,0,0,0,0,0,0,0,0,0,0,0,0,0,0,0,0,0,0,0,0,0,0,0,0,0,0,0,0,0,0,0,0,0,0,0,5.1373,5.1375,0,5.1476,5.1477,5.1479,5.1458,5.1457,5.1455,5.1453,5.1553,5.1557,5.1561,0,0,0,0,0,0,0,0,0,0,0,0,0,5.1155,5.1159,5.1373,5.1375,5.1376,5.1476,5.1478,5.1479,5.1459,5.1457,5.1454,5.1452,5.1551,5.1557,5.1562,0,0,0,0,0,0,0,0,0,0,0,0,0,5.1253,5.1161,5.1373,5.1378,5.138,5.1476,5.1478,5.1479,5.1459,5.1456,5.1454,5.1451,5.155,5.1556,5.1563,5.1659,0,0,5.1583,5.1585,0,0,0,0,0,0,0,0,5.1247,5.1261,5.1376,5.1378,5.138,5.1452,5.1437,5.1539,5.146,5.1429,5.1453,5.145,5.1521,5.153,5.1555,5.1663,5.1667,5.1583,5.1587,5.159,5.1592,0,0,0,0,0,0,0,5.1241,5.1256,5.1414,5.1378,5.138,5.1374,5.1385,5.1456,5.1489,5.1431,5.143,5.1443,5.1522,5.1549,5.1557,5.1669,5.1583,5.1589,5.1593,5.1595,5.1863,5.1867,0,0,0,0,0,0,5.1233,5.1251,5.1411,5.1417,5.1306,5.138,5.1392,5.1431,5.1488,5.1494,5.1445,5.1442,5.1539,5.155,5.1561,5.1679,5.159,5.1596,5.16,5.186,5.1864,5.1868,0,0,0,0,0,0,5.1228,5.1247,5.1406,5.1334,5.1354,5.1387,5.1431,5.1435,5.1462,5.1499,5.1504,5.1467,5.1537,5.1551,5.1635,5.1682,5.1599,5.1605,5.1857,5.1862,5.1866,5.1915,0,0,0,0,0,0,5.1222,5.1246,5.1284,5.1335,5.1358,5.1481,5.1434,5.1439,5.1474,5.1471,5.1521,5.1527,5.1536,5.1626,5.1642,5.169,5.161,5.1853,5.1859,5.1864,5.191,5.1921,5.1931,0,0,0,0,0,5.1214,5.1292,5.1286,5.1305,5.1406,5.1484,5.1496,5.1507,5.1478,5.1516,5.154,5.1525,5.1674,5.1634,5.1652,5.1703,5.185,5.1857,5.1864,5.1905,5.1919,5.1931,0,0,0,0,0,0,5.1242,5.1298,5.1292,5.1389,5.1432,5.148,5.1528,5.1521,5.1572,5.1566,5.1576,5.1587,5.1674,5.1696,5.1651,5.18,5.1758,5.1769,5.1783,5.1796,5.1807,5.18,5.1616,0,0,0,0,0,5.126,5.132,5.1365,5.1446,5.1468,5.1495,5.1529,5.1534,5.1578,5.1595,5.1625,5.1667,5.1724,5.1761,5.1815,5.1912,5.1924,5.1956,5.1967,5.1975,5.1985,5.2041,5.2056,5.1891,5.1891,5.1891,0,0,5.1296,5.1335,5.1372,5.1452,5.1486,5.1548,5.151,5.1575,5.1621,5.1605,5.1687,5.1711,5.1758,5.185,5.1892,5.1872,5.2033,5.1984,5.1991,5.1996,5.205,5.2066,5.2079,5.1896,5.1895,5.1894,0,0,5.1395,5.143,5.1502,5.1538,5.1591,5.1608,5.1626,5.1676,5.1691,5.1775,5.1765,5.1818,5.1914,5.195,5.198,5.2095,5.2084,5.2111,5.2168,5.2222,5.2235,5.2247,5.229,5.2305,5.2121,5.2121,5.2121,0,5.1434,5.1528,5.1539,5.1608,5.1644,5.1634,5.1708,5.1741,5.1808,5.1833,5.1809,5.1933,5.1963,5.2065,5.2093,5.2117,5.2138,5.2106,5.2232,5.2244,5.2255,5.2296,5.2312,5.2124,5.2124,5.2123,5.2123,0,5.1573,5.1638,5.169,5.1759,5.18,5.187,5.1892,5.1933,5.1934,5.1954,5.2039,5.2077,5.2139,5.2163,5.2164,5.2265,5.2252,5.223,5.2188,5.2274,5.2313,5.2329,5.2129,5.2128,5.2127,5.2126,0,0,5.1692,5.1768,5.1787,5.1819,5.1878,5.1928,5.1997,5.2061,5.2097,5.2143,5.2202,5.2285,5.2267,5.2302,5.2306,5.2354,5.2445,5.2327,5.2328,5.2349,5.2562,5.2579,5.2597,5.2437,5.244,5.2443,5.2558,0,5.1798,5.1925,5.1938,5.205,5.2111,5.2103,5.2164,5.2206,5.2227,5.228,5.2302,5.2362,5.2332,5.2353,5.2399,5.2424,5.2488,5.2415,5.2493,5.2496,5.2484,5.2617,5.2635,5.2743,5.2573,5.2576,5.2578,0,5.1939,5.1993,5.2112,5.2165,5.2191,5.2246,5.2307,5.2358,5.2405,5.2417,5.2457,5.2456,5.2528,5.2482,5.2581,5.2532,5.2564,5.2581,5.2585,5.2595,5.2543,5.2632,5.2777,5.2794,5.2601,5.2599,5.2598,0,5.2017,5.2119,5.2205,5.2232,5.2294,5.2334,5.2361,5.2406,5.2444,5.2496,5.2521,5.258,5.2612,5.2658,5.2673,5.2637,5.2772,5.2727,5.2784,5.2784,5.2814,5.2813,5.2969,5.2831,5.2831,5.2831,5.2831,0,5.2135,5.2209,5.2241,5.2294,5.2376,5.239,5.2471,5.2496,5.2537,5.2594,5.2589,5.2642,5.2658,5.2714,5.2725,5.2807,5.2821,5.2832,5.2835,5.2834,5.2833,5.2857,5.2851,5.2835,5.2834,5.2833,5.2833,0,5.2237,5.2262,5.2355,5.2407,5.2422,5.2481,5.2526,5.2576,5.2596,5.2668,5.2686,5.2717,5.2783,5.2802,5.2879,5.2887,5.2984,5.2979,5.2969,5.297,5.3028,5.3023,5.3206,5.3232,5.3075,5.3077,5.3078,0,5.2312,5.237,5.243,5.2469,5.2499,5.2561,5.2601,5.2616,5.2658,5.2718,5.2761,5.2827,5.288,5.2986,5.3014,5.3075,5.3072,5.3132,5.3081,5.3079,5.3076,5.3073,5.308,5.3142,5.3144,5.3145,5.3146,0,5.2444,5.2454,5.2512,5.2576,5.2625,5.2675,5.2723,5.2754,5.2777,5.2824,5.2892,5.2934,5.3016,5.3081,5.3143,5.3169,5.3163,5.3162,5.3179,5.318,5.3173,5.318,5.2998,5.3158,5.3157,5.3156,5.3155,5.3155,5.2536,5.2588,5.2639,5.2705,5.2744,5.2789,5.2841,5.2868,5.2926,5.2996,5.3,5.3075,5.3122,5.3205,5.3235,5.3294,5.3276,5.33,5.3306,5.3312,5.3319,5.3163,5.3304,5.3304,5.3304,5.3303,5.3303,0,5.267,5.2703,5.2764,5.2833,5.2885,5.2875,5.2928,5.2972,5.3039,5.3085,5.3138,5.3218,5.3282,5.3317,5.338,5.3421,5.3419,5.3437,5.3435,5.3442,5.3329,5.331,5.3437,5.3437,5.3437,5.3437,5.3437,5.3437,5.2746,5.2833,5.2849,5.2956,5.2988,5.3063,5.3095,5.3137,5.3174,5.3264,5.3318,5.3341,5.3383,5.345,5.3508,5.3517,5.3541,5.3562,5.3569,5.3463,5.345,5.3437,5.3418,5.3567,5.3567,5.3677,5.3678,5.3678]}]]